| time (UTC) | temp F | wind direction | speed knots | gust knots | rain 1hr in | rain 24hr in | rain mn in | humidity % | barometer mb |
| 20260506023050 | 31 | 189 | 0.0 | 0.9 | 0.00 | 0.01 | 0.00 | 1 | 1014.4 |
| 20260506021555 | 31 | 189 | 0.0 | 0.9 | 0.00 | 0.01 | 0.00 | 1 | 1014.4 |
| 20260506020041 | 32 | 189 | 0.0 | 0.0 | 0.00 | 0.01 | 0.00 | 1 | 1014.5 |
| 20260506014536 | 32 | 189 | 0.0 | 0.0 | 0.00 | 0.01 | 0.00 | 1 | 1014.4 |
| 20260506013032 | 32 | 212 | 0.0 | 0.0 | 0.00 | 0.01 | 0.00 | 1 | 1014.5 |
| 20260506011531 | 32 | 212 | 0.0 | 0.9 | 0.00 | 0.01 | 0.00 | 1 | 1014.4 |
| 20260506010024 | 32 | 189 | 0.0 | 0.0 | 0.00 | 0.01 | 0.00 | 1 | 1014.4 |
| 20260506004518 | 33 | 189 | 0.0 | 0.0 | 0.00 | 0.01 | 0.00 | 1 | 1014.4 |
| 20260506003015 | 33 | 212 | 0.0 | 0.0 | 0.00 | 0.01 | 0.00 | 1 | 1014.5 |
| 20260506001513 | 33 | 212 | 0.0 | 0.0 | 0.00 | 0.01 | 0.00 | 1 | 1014.5 |
| 20260506000006 | 34 | 212 | 0.0 | 0.9 | 0.00 | 0.01 | 0.00 | 1 | 1014.5 |
| 20260505234505 | 34 | 212 | 0.0 | 0.0 | 0.00 | 0.01 | 0.00 | 4 | 1014.5 |
| 20260505233057 | 34 | 212 | 0.0 | 0.0 | 0.00 | 0.01 | 0.00 | 7 | 1014.5 |
| 20260505231554 | 35 | 189 | 0.0 | 0.9 | 0.00 | 0.01 | 0.00 | 7 | 1014.4 |
| 20260505230051 | 35 | 189 | 0.0 | 0.9 | 0.00 | 0.01 | 0.00 | 12 | 1014.4 |
| 20260505224545 | 36 | 189 | 0.0 | 0.9 | 0.00 | 0.01 | 0.00 | 14 | 1014.5 |
| 20260505223046 | 36 | 189 | 0.0 | 0.0 | 0.00 | 0.01 | 0.00 | 14 | 1014.4 |
| 20260505221536 | 37 | 189 | 0.0 | 0.9 | 0.00 | 0.01 | 0.00 | 15 | 1014.4 |
| 20260505220032 | 37 | 189 | 0.0 | 1.7 | 0.00 | 0.01 | 0.00 | 17 | 1014.4 |
| 20260505214534 | 37 | 189 | 0.0 | 0.9 | 0.00 | 0.01 | 0.01 | 22 | 1014.3 |
| 20260505213022 | 38 | 189 | 0.0 | 0.9 | 0.00 | 0.01 | 0.01 | 25 | 1014.4 |
| 20260505211534 | 38 | 189 | 0.0 | 1.7 | 0.00 | 0.01 | 0.01 | 26 | 1014.4 |
| 20260505210014 | 38 | 189 | 0.0 | 0.9 | 0.00 | 0.01 | 0.01 | 30 | 1014.5 |
| 20260505204509 | 39 | 189 | 0.0 | 3.5 | 0.00 | 0.01 | 0.01 | 33 | 1014.3 |
| 20260505203005 | 39 | 189 | 0.0 | 0.9 | 0.00 | 0.01 | 0.01 | 37 | 1014.3 |
| 20260505201501 | 40 | 189 | 0.0 | 1.7 | 0.00 | 0.01 | 0.01 | 39 | 1014.3 |
| 20260505200058 | 40 | 189 | 0.0 | 0.9 | 0.00 | 0.01 | 0.01 | 39 | 1014.4 |
| 20260505194552 | 41 | 188 | 0.0 | 3.5 | 0.00 | 0.01 | 0.01 | 39 | 1014.2 |
| 20260505193047 | 42 | 160 | 0.0 | 3.5 | 0.00 | 0.01 | 0.01 | 40 | 1014.2 |
| 20260505191550 | 42 | 212 | 0.0 | 3.5 | 0.00 | 0.01 | 0.01 | 40 | 1014.1 |
| 20260505190041 | 43 | 160 | 0.9 | 5.2 | 0.00 | 0.01 | 0.01 | 38 | 1014.0 |
| 20260505184545 | 44 | 212 | 0.9 | 3.5 | 0.00 | 0.01 | 0.01 | 38 | 1013.9 |
| 20260505183038 | 45 | 196 | 1.7 | 6.1 | 0.00 | 0.01 | 0.01 | 39 | 1013.7 |
| 20260505181526 | 46 | 212 | 1.7 | 7.8 | 0.00 | 0.01 | 0.01 | 39 | 1013.7 |
| 20260505180022 | 46 | 141 | 3.5 | 9.6 | 0.00 | 0.01 | 0.01 | 39 | 1013.7 |
| 20260505174517 | 46 | 150 | 4.3 | 7.8 | 0.00 | 0.01 | 0.01 | 39 | 1013.8 |
| 20260505173016 | 47 | 138 | 3.5 | 9.6 | 0.00 | 0.01 | 0.01 | 40 | 1013.8 |
| 20260505171509 | 49 | 212 | 1.7 | 7.0 | 0.00 | 0.01 | 0.01 | 39 | 1013.8 |
| 20260505170010 | 48 | 194 | 3.5 | 7.8 | 0.00 | 0.01 | 0.01 | 38 | 1013.7 |
| 20260505164603 | 47 | 212 | 1.7 | 10.4 | 0.00 | 0.01 | 0.01 | 39 | 1013.7 |
| 20260505163055 | 48 | 149 | 2.6 | 11.3 | 0.00 | 0.01 | 0.01 | 39 | 1013.6 |
| 20260505161551 | 49 | 177 | 3.5 | 8.7 | 0.00 | 0.01 | 0.01 | 37 | 1013.6 |
| 20260505153045 | 49 | 212 | 1.7 | 9.6 | 0.00 | 0.01 | 0.01 | 35 | 1013.8 |
| 20260505151540 | 48 | 201 | 3.5 | 9.6 | 0.00 | 0.01 | 0.01 | 35 | 1013.8 |
| 20260505124551 | 47 | 150 | 5.2 | 12.2 | 0.00 | 0.01 | 0.01 | 37 | 1013.8 |
| 20260505123046 | 48 | 140 | 5.2 | 10.4 | 0.00 | 0.01 | 0.01 | 35 | 1013.6 |
| 20260505121547 | 48 | 103 | 2.6 | 8.7 | 0.00 | 0.01 | 0.01 | 35 | 1013.5 |
| 20260505120037 | 49 | 144 | 3.5 | 7.8 | 0.00 | 0.01 | 0.01 | 33 | 1013.4 |
| 20260505114532 | 47 | 124 | 2.6 | 9.6 | 0.00 | 0.01 | 0.01 | 34 | 1013.5 |
| 20260505113038 | 48 | 221 | 1.7 | 7.0 | 0.00 | 0.01 | 0.01 | 31 | 1013.4 |
| 20260505111538 | 46 | 79 | 1.7 | 7.0 | 0.00 | 0.01 | 0.01 | 31 | 1013.4 |
| 20260505101519 | 44 | 156 | 2.6 | 7.8 | 0.00 | 0.01 | 0.01 | 30 | 1013.5 |
| 20260505100003 | 44 | 153 | 1.7 | 8.7 | 0.00 | 0.01 | 0.01 | 32 | 1013.5 |
| 20260505094605 | 45 | 212 | 1.7 | 4.3 | 0.00 | 0.01 | 0.01 | 35 | 1013.4 |
| 20260505093056 | 45 | 185 | 0.9 | 5.2 | 0.00 | 0.01 | 0.01 | 34 | 1013.4 |
| 20260505091550 | 46 | 193 | 0.0 | 4.3 | 0.00 | 0.01 | 0.01 | 32 | 1013.2 |
| 20260505090050 | 45 | 198 | 0.0 | 4.3 | 0.00 | 0.01 | 0.01 | 32 | 1013.2 |
| 20260505084541 | 44 | 185 | 0.0 | 3.5 | 0.00 | 0.01 | 0.01 | 32 | 1013.0 |
| 20260505083043 | 44 | 144 | 0.0 | 3.5 | 0.01 | 0.01 | 0.01 | 30 | 1013.0 |
| 20260505081532 | 44 | 165 | 0.9 | 2.6 | 0.01 | 0.01 | 0.01 | 25 | 1012.9 |
| 20260505080031 | 44 | 194 | 0.0 | 4.3 | 0.01 | 0.01 | 0.01 | 21 | 1012.9 |
| 20260505074524 | 43 | 202 | 0.0 | 3.5 | 0.01 | 0.01 | 0.01 | 15 | 1012.9 |
| 20260505073019 | 43 | 228 | 0.0 | 0.9 | 0.00 | 0.00 | 0.00 | 9 | 1012.9 |
| 20260505071515 | 42 | 221 | 0.0 | 4.3 | 0.00 | 0.00 | 0.00 | 6 | 1012.9 |
| 20260505070020 | 41 | 227 | 0.0 | 1.7 | 0.00 | 0.00 | 0.00 | 1 | 1012.9 |
| 20260505064511 | 40 | 249 | 0.0 | 3.5 | 0.00 | 0.00 | 0.00 | 1 | 1012.9 |
| 20260505063002 | 38 | 247 | 0.9 | 2.6 | 0.00 | 0.00 | 0.00 | 1 | 1013.0 |
| 20260505061618 | 37 | 246 | 0.0 | 0.9 | 0.00 | 0.00 | 0.00 | 1 | 1013.1 |
| 20260505060057 | 36 | 245 | 0.0 | 0.0 | 0.00 | 0.00 | 0.00 | 1 | 1013.0 |
| 20260505054554 | 34 | 245 | 0.0 | 0.0 | 0.00 | 0.00 | 0.00 | 1 | 1013.0 |
| 20260505053044 | 33 | 245 | 0.0 | 0.9 | 0.00 | 0.00 | 0.00 | 1 | 1013.0 |
| 20260505051540 | 32 | 245 | 0.0 | 0.0 | 0.00 | 0.00 | 0.00 | 1 | 1013.0 |
| 20260505041523 | 31 | 244 | 0.0 | 0.9 | 0.00 | 0.00 | 0.00 | 1 | 1012.4 |
| 20260505040035 | 31 | 245 | 0.0 | 0.9 | 0.00 | 0.00 | 0.00 | 1 | 1012.2 |
| 20260505034518 | 31 | 245 | 0.0 | 0.9 | 0.00 | 0.00 | 0.00 | 1 | 1012.4 |
| 20260505033014 | 32 | 244 | 0.0 | 0.0 | 0.00 | 0.00 | 0.00 | 1 | 1012.5 |
| 20260505031505 | 32 | 245 | 0.0 | 0.0 | 0.00 | 0.00 | 0.00 | 1 | 1012.6 |
| 20260505024556 | 32 | 245 | 0.0 | 0.0 | 0.00 | 0.00 | 0.00 | 1 | 1012.6 |